Regional Weather Roundup
Issued by NWS

Home | Current Version | Previous Version | Text Only | Print | Product List | Glossary Off
Versions: 1 2 3 4 5 6 7 8 9 10 11 12 13 14 15 16 17 18 19 20 21 22 23 24 25 26 27 28 29 30 31 32 33 34 35 36 37 38 39 40 41 42 43 44 45 46 47 48 49 50

000
ASUS43 KOAX 260810
RWRNE

WEATHER ROUNDUP FOR NEBRASKA
NATIONAL WEATHER SERVICE OMAHA NE
300 AM CDT THU APR 26 2018

NOTES: SATELLITE DATA IS BEING USED TO AUGMENT CLOUD COVER ABOVE
       12000 FEET.
       "FAIR" INDICATES FEW OR NO CLOUDS BELOW 12,000 FEET WITH NO
       SIGNIFICANT WEATHER AND/OR OBSTRUCTIONS TO VISIBILITY.


NEZ001>004-019>022-054>056-260900-
NEBRASKA PANHANDLE

CITY           SKY/WX    TMP DP  RH WIND       PRES   REMARKS
SCOTTSBLUFF    CLOUDY    53  30  41 NW15      30.03R
ALLIANCE       CLOUDY    47  32  56 N16       29.96R
CHADRON        MOCLDY    47  32  56 CALM      30.01R
GORDON         FAIR      51  31  46 N16       29.95S
KIMBALL        CLOUDY    50  26  38 N21G31    30.02R
SIDNEY         CLOUDY    50  28  42 NW18      29.95S
$$

NEZ057>060-069>072-079>082-260900-
SOUTHWEST NEBRASKA

CITY           SKY/WX    TMP DP  RH WIND       PRES   REMARKS
NORTH PLATTE   CLOUDY    44  33  65 S5        29.92F
IMPERIAL       MOCLDY    42  34  73 S8        29.93F
LEXINGTON      CLOUDY    42  35  75 S5        29.96S
MCCOOK         MOCLDY    41  34  76 SW8       29.95F
OGALLALA       CLOUDY    47  36  65 S9        29.91F
$$

NEZ005>010-023>029-035>040-094-260900-
NORTH CENTRAL NEBRASKA

CITY           SKY/WX    TMP DP  RH WIND       PRES   REMARKS
VALENTINE      MOCLDY    47  33  58 SW9       29.89F
AINSWORTH      CLOUDY    45  33  63 W7        29.92R
BROKEN BOW     PTCLDY    40  33  76 S10       29.92F WCI  33
O`NEILL        CLOUDY    47  35  64 SW9       29.92S
ORD            PTCLDY    38  33  82 CALM      29.94S
THEDFORD       CLOUDY    47  33  57 S3        29.93S
$$

NEZ041-046>049-061>064-073>077-083>087-260900-
SOUTH CENTRAL NEBRASKA

CITY           SKY/WX    TMP DP  RH WIND       PRES   REMARKS
GRAND ISLAND   CLOUDY    42  36  79 S9        29.98F
AURORA         CLOUDY    39  35  85 SW9       29.98F WCI  33
HASTINGS       CLOUDY    40  37  89 S8        29.99F WCI  34
HEBRON         CLOUDY    40  38  91 W6        29.99F
HOLDREGE       CLOUDY    40  37  87 S8        29.97F WCI  35
KEARNEY        CLOUDY    41  36  82 SW12      29.97F
YORK             N/A     36  36 100 SW8       29.98F WCI  29
$$

NEZ011>018-030>034-042>045-260900-
NORTHEAST NEBRASKA

CITY           SKY/WX    TMP DP  RH WIND       PRES   REMARKS
NORFOLK        CLOUDY    41  33  73 S12       29.94F
ALBION         CLOUDY    41  34  76 CALM      29.96S
BLAIR          CLOUDY    45  35  68 W3        29.97S
COLUMBUS       PTCLDY    43  35  73 W9        29.98F
FREMONT        CLOUDY    41  35  78 W5        29.97F
TEKAMAH        CLOUDY    38  32  79 CALM      29.96F
WAYNE          CLOUDY    41  37  83 SW10      29.94F
$$

NEZ050>053-065>068-078-088>093-260900-
SOUTHEAST NEBRASKA

CITY           SKY/WX    TMP DP  RH WIND       PRES   REMARKS
LINCOLN        PTCLDY    40  34  79 S3        30.00S
OMAHA EPPLEY   CLOUDY    45  36  70 SE3       29.97F
BEATRICE       PTCLDY    36  35  95 CALM      30.00S
FALLS CITY     CLOUDY    39  35  86 W3        29.98F
NEBRASKA CITY  PTCLDY    41  38  91 W10       29.98F
PLATTSMOUTH    PTCLDY    42  33  70 SW6       29.97F
$$

NEZ044-045-051>053-067-260900-
OMAHA AREA

CITY           SKY/WX    TMP DP  RH WIND       PRES   REMARKS
OMAHA EPPLEY   CLOUDY    45  36  70 SE3       29.97F
BLAIR          CLOUDY    45  35  68 W3        29.97S
FREMONT        CLOUDY    41  35  78 W5        29.97F
MILLARD        PTCLDY    43  35  73 CALM      29.98S
OFFUTT AFB     PTCLDY    36  33  87 CALM      29.97F
PLATTSMOUTH    PTCLDY    42  33  70 SW6       29.97F
WAHOO          FAIR      44  33  65 W8        29.97F
$$




USA.gov is the U.S. government's official web portal to all federal, state and local government web resources and services.